[[{"header":{"parameterUnit":"m.s-1","parameterCategory":1,"la1":30.2991,"la2":30.254,"lo1":-89.0895,"lo2":-89.0444,"dy":0.0017,"dx":0.0017,"nx":28,"ny":28,"refTime":"2023-08-18T09:00:00:Z","depth":0,"parameterNumber":2,"parameterNumberName":"U-component_of_WINDS"},"data":[0,0,0,0,0,0,0,0,0,0,0,0,0,0,0,0,0,0,0,0,0,0,0,0,0,0,0,0,0,0,0,0,0,0,0,0,0,0,0,0,0,0,0,0,0,0,0,0,0,0,0,0,0,0,0,0,0,0,1.4065,1.4067,0,1.4212,1.4213,1.4215,1.4232,1.4231,1.4229,1.4228,1.4386,1.4391,1.4397,0,0,0,0,0,0,0,0,0,0,0,0,0,1.3807,1.3812,1.4065,1.4067,1.4069,1.4211,1.4213,1.4215,1.4233,1.4231,1.4229,1.4227,1.4384,1.4391,1.4397,0,0,0,0,0,0,0,0,0,0,0,0,0,1.3933,1.3813,1.4065,1.4094,1.4098,1.4211,1.4213,1.4216,1.4233,1.4231,1.4229,1.4227,1.4382,1.439,1.4398,1.4494,0,0,1.4424,1.4427,0,0,0,0,0,0,0,0,1.3926,1.3942,1.4088,1.4092,1.4097,1.4201,1.418,1.4309,1.4234,1.4182,1.4228,1.4225,1.4327,1.4339,1.4372,1.4501,1.4508,1.4424,1.4429,1.4433,1.4435,0,0,0,0,0,0,0,1.3917,1.3936,1.4123,1.409,1.4096,1.4103,1.4118,1.4205,1.4265,1.4186,1.4188,1.4205,1.4329,1.4364,1.4376,1.451,1.4424,1.4432,1.4437,1.444,1.4725,1.4728,0,0,0,0,0,0,1.3902,1.3929,1.4119,1.4128,1.4004,1.4109,1.4126,1.417,1.4264,1.4276,1.4206,1.4205,1.4351,1.4366,1.4381,1.4499,1.4433,1.4441,1.4446,1.4723,1.4726,1.4729,0,0,0,0,0,0,1.3896,1.3919,1.4113,1.4029,1.4054,1.4116,1.4165,1.4174,1.4209,1.4279,1.4291,1.4231,1.435,1.437,1.4465,1.4505,1.4445,1.4452,1.472,1.4724,1.4727,1.4735,0,0,0,0,0,0,1.3889,1.3916,1.3952,1.4029,1.4058,1.4192,1.4167,1.4179,1.4223,1.4222,1.4305,1.4317,1.4349,1.4453,1.4473,1.4515,1.4459,1.4716,1.4722,1.4726,1.4732,1.4739,1.4745,0,0,0,0,0,1.3879,1.395,1.3953,1.3976,1.4103,1.4194,1.4211,1.4245,1.4226,1.4263,1.4308,1.4314,1.4497,1.4462,1.4486,1.4531,1.4714,1.472,1.4726,1.4729,1.4738,1.4745,0,0,0,0,0,0,1.3878,1.396,1.3965,1.4062,1.4121,1.4196,1.4244,1.4253,1.432,1.4317,1.4358,1.4377,1.4471,1.4511,1.447,1.4628,1.4604,1.4615,1.4598,1.4607,1.4614,1.4602,1.4466,0,0,0,0,0,1.3888,1.3953,1.4022,1.4102,1.413,1.4182,1.4223,1.4244,1.4307,1.4332,1.4384,1.4447,1.4519,1.4566,1.4636,1.4738,1.4757,1.4781,1.4787,1.4792,1.4801,1.4858,1.487,1.4748,1.4748,1.4748,0,0,1.3911,1.3965,1.4003,1.4103,1.415,1.4218,1.4203,1.4275,1.4327,1.4344,1.4436,1.4477,1.455,1.4649,1.4696,1.4686,1.4839,1.48,1.4803,1.481,1.4866,1.4877,1.4887,1.4752,1.4751,1.475,0,0,1.3988,1.4034,1.4105,1.4152,1.4224,1.4258,1.4275,1.435,1.4376,1.4469,1.4483,1.4547,1.4669,1.472,1.4763,1.4858,1.4867,1.488,1.4915,1.497,1.498,1.4989,1.5023,1.5034,1.4889,1.4889,1.4889,0,1.4008,1.4108,1.4141,1.4212,1.4256,1.4273,1.4346,1.4391,1.4483,1.4514,1.45,1.4654,1.4705,1.4816,1.4839,1.4873,1.4894,1.4871,1.4976,1.4985,1.4993,1.5026,1.5039,1.489,1.489,1.489,1.489,0,1.413,1.4199,1.4248,1.4333,1.4383,1.4455,1.45,1.4547,1.4564,1.4599,1.4694,1.4756,1.4838,1.4866,1.4884,1.498,1.4971,1.4967,1.4943,1.5005,1.5037,1.505,1.4892,1.4891,1.4891,1.4891,0,0,1.4209,1.431,1.4328,1.4366,1.4447,1.4502,1.4576,1.4654,1.4693,1.4756,1.4819,1.4922,1.4918,1.4966,1.499,1.5039,1.511,1.5028,1.503,1.5041,1.522,1.5222,1.5236,1.5116,1.5119,1.5121,1.5213,0,1.4294,1.4422,1.4454,1.4565,1.463,1.4647,1.4711,1.4768,1.4804,1.4866,1.4907,1.4979,1.4968,1.4997,1.5045,1.5091,1.5147,1.5085,1.5177,1.518,1.5157,1.5253,1.5256,1.534,1.5226,1.5228,1.523,0,1.4411,1.4473,1.4589,1.466,1.4689,1.4746,1.482,1.4879,1.4945,1.4967,1.502,1.504,1.5119,1.5091,1.5201,1.5159,1.5199,1.5227,1.5231,1.5241,1.5208,1.5265,1.5368,1.538,1.525,1.5248,1.5247,0,1.4456,1.457,1.4654,1.4687,1.4772,1.4811,1.4849,1.4913,1.4958,1.5023,1.5053,1.5128,1.5169,1.5228,1.5268,1.5244,1.5375,1.535,1.5397,1.5396,1.5423,1.5421,1.5533,1.545,1.545,1.5449,1.5449,0,1.4547,1.4618,1.4675,1.4727,1.4807,1.4843,1.4922,1.4961,1.5017,1.5078,1.5099,1.5156,1.5205,1.527,1.5302,1.5389,1.5408,1.5429,1.5437,1.5427,1.5424,1.5453,1.5448,1.5453,1.5452,1.5451,1.5451,0,1.4611,1.4652,1.4745,1.4818,1.4838,1.4893,1.4957,1.5009,1.5045,1.5122,1.5142,1.52,1.5277,1.5322,1.542,1.5442,1.5537,1.5543,1.5514,1.5517,1.5561,1.5556,1.5696,1.5716,1.5619,1.562,1.5621,0,1.4666,1.472,1.4798,1.4839,1.4877,1.4943,1.4988,1.5027,1.5074,1.5153,1.5196,1.5273,1.5337,1.546,1.5512,1.5587,1.5595,1.5638,1.5606,1.5594,1.5595,1.559,1.5596,1.5644,1.5645,1.5645,1.5646,0,1.4759,1.4777,1.484,1.4911,1.4963,1.5021,1.5079,1.5112,1.5162,1.5213,1.5291,1.534,1.5439,1.5516,1.5596,1.5637,1.565,1.5656,1.567,1.566,1.5641,1.5651,1.5528,1.5652,1.5652,1.5651,1.5651,1.565,1.482,1.4869,1.4931,1.5001,1.5048,1.5102,1.5153,1.5195,1.526,1.5342,1.5362,1.5443,1.5509,1.5616,1.566,1.5725,1.5718,1.574,1.5745,1.5749,1.575,1.5631,1.574,1.574,1.574,1.574,1.574,0,1.4914,1.4954,1.5018,1.5097,1.5153,1.5158,1.5222,1.5269,1.5339,1.5398,1.546,1.555,1.5625,1.5682,1.5759,1.5801,1.5809,1.582,1.5817,1.5826,1.5752,1.5732,1.5812,1.5812,1.5812,1.5812,1.5812,1.5812,1.4969,1.5051,1.5076,1.5183,1.5224,1.5302,1.5338,1.5389,1.5435,1.5533,1.5595,1.5631,1.569,1.5772,1.5841,1.5856,1.5884,1.5894,1.591,1.584,1.5832,1.5824,1.5805,1.5899,1.59,1.5978,1.5979,1.598]},{"header":{"parameterUnit":"m.s-1","parameterCategory":1,"la1":30.2991,"la2":30.254,"lo1":-89.0895,"lo2":-89.0444,"dy":0.0017,"dx":0.0017,"nx":28,"ny":28,"refTime":"2023-08-18T09:00:00:Z","depth":0,"parameterNumber":3,"parameterNumberName":"V-component_of_WINDS"},"data":[0,0,0,0,0,0,0,0,0,0,0,0,0,0,0,0,0,0,0,0,0,0,0,0,0,0,0,0,0,0,0,0,0,0,0,0,0,0,0,0,0,0,0,0,0,0,0,0,0,0,0,0,0,0,0,0,0,0,4.0369,4.0369,0,4.0437,4.0438,4.0439,4.0389,4.0387,4.0384,4.0382,4.0451,4.0455,4.0459,0,0,0,0,0,0,0,0,0,0,0,0,0,4.0188,4.0192,4.0368,4.0369,4.037,4.0437,4.0438,4.0439,4.0389,4.0387,4.0384,4.0381,4.045,4.0454,4.0459,0,0,0,0,0,0,0,0,0,0,0,0,0,4.0263,4.0193,4.0368,4.0353,4.0353,4.0437,4.0438,4.0439,4.039,4.0387,4.0383,4.038,4.0448,4.0454,4.046,4.0562,0,0,4.0477,4.048,0,0,0,0,0,0,0,0,4.0259,4.027,4.0355,4.0355,4.0354,4.0401,4.04,4.048,4.0391,4.0376,4.0382,4.0379,4.0437,4.0443,4.0464,4.0565,4.0568,4.0478,4.0481,4.0484,4.0486,0,0,0,0,0,0,0,4.0254,4.0266,4.0396,4.0356,4.0356,4.0341,4.0348,4.0415,4.0424,4.0377,4.0373,4.0382,4.0436,4.0458,4.0465,4.0569,4.0478,4.0483,4.0487,4.0489,4.075,4.0753,0,0,0,0,0,0,4.025,4.0262,4.0393,4.0398,4.0297,4.0347,4.0355,4.0389,4.0423,4.0425,4.0385,4.038,4.045,4.0458,4.0467,4.0583,4.0484,4.0489,4.0493,4.0746,4.0751,4.0754,0,0,0,0,0,0,4.0247,4.0263,4.0391,4.0329,4.0344,4.0354,4.0393,4.0392,4.0414,4.0429,4.043,4.0406,4.0448,4.0459,4.0537,4.0585,4.0492,4.0497,4.0742,4.0748,4.0752,4.082,0,0,0,0,0,0,4.0242,4.0262,4.0302,4.033,4.0348,4.0461,4.0396,4.0396,4.0425,4.0418,4.0449,4.0451,4.0446,4.0529,4.0543,4.0592,4.0502,4.0738,4.0745,4.0751,4.0814,4.0827,4.0839,0,0,0,0,0,4.0236,4.032,4.0305,4.0321,4.0399,4.0464,4.0474,4.0467,4.0429,4.0468,4.0477,4.045,4.0578,4.0537,4.0553,4.0604,4.0735,4.0743,4.075,4.0808,4.0825,4.0838,0,0,0,0,0,0,4.0298,4.0323,4.0307,4.0403,4.0432,4.0456,4.0505,4.0485,4.0525,4.0517,4.0506,4.0513,4.0594,4.0607,4.0561,4.0701,4.065,4.0661,4.0689,4.0705,4.0717,4.071,4.0507,0,0,0,0,0,4.0323,4.0375,4.0394,4.0477,4.0492,4.0496,4.0525,4.0516,4.0545,4.0557,4.0572,4.06,4.0646,4.0677,4.072,4.0816,4.0819,4.0859,4.0871,4.0881,4.089,4.0935,4.0952,4.078,4.078,4.0779,0,0,4.0375,4.0395,4.0429,4.049,4.0511,4.0562,4.0507,4.0566,4.0603,4.0566,4.0639,4.0651,4.0681,4.0767,4.0805,4.078,4.0938,4.0891,4.0899,4.0902,4.0945,4.0961,4.0976,4.0785,4.0784,4.0783,0,0,4.0495,4.0518,4.0586,4.0608,4.064,4.0641,4.0658,4.0684,4.069,4.0763,4.0734,4.0778,4.0859,4.088,4.0902,4.1024,4.0999,4.1039,4.1103,4.1147,4.1161,4.1172,4.1211,4.1226,4.1048,4.1048,4.1048,0,4.0555,4.0633,4.0624,4.0683,4.0708,4.0676,4.0742,4.0764,4.0809,4.0826,4.0798,4.0894,4.0914,4.1,4.103,4.105,4.1065,4.1034,4.116,4.1171,4.1182,4.1219,4.1234,4.1053,4.1052,4.1052,4.1051,0,4.0702,4.0756,4.0808,4.0849,4.0881,4.0944,4.0941,4.0974,4.0961,4.0965,4.1037,4.1058,4.1102,4.1123,4.1113,4.1207,4.119,4.1162,4.1109,4.1203,4.1237,4.1251,4.1059,4.1057,4.1056,4.1055,0,0,4.0865,4.0898,4.0916,4.0932,4.0963,4.1003,4.1063,4.1106,4.1131,4.1163,4.1209,4.1276,4.1248,4.1272,4.1263,4.1303,4.1391,4.1268,4.1269,4.1286,4.149,4.1509,4.1526,4.1376,4.1379,4.1381,4.1486,0,4.0982,4.1085,4.1076,4.1173,4.1219,4.1187,4.1238,4.1261,4.1265,4.1304,4.1308,4.1354,4.1316,4.1329,4.1367,4.1373,4.1432,4.1366,4.1416,4.1418,4.1405,4.1544,4.1565,4.1663,4.15,4.1502,4.1504,0,4.1134,4.1167,4.1268,4.1286,4.1305,4.1351,4.1386,4.1425,4.1449,4.1448,4.1473,4.1456,4.1512,4.1462,4.1536,4.1491,4.1511,4.1517,4.152,4.1522,4.1464,4.1545,4.1695,4.1708,4.1526,4.1524,4.1522,0,4.1235,4.1306,4.1373,4.1389,4.1414,4.1445,4.1457,4.1478,4.1502,4.1533,4.1547,4.1585,4.1605,4.1633,4.1626,4.159,4.17,4.165,4.1698,4.1698,4.172,4.1718,4.1871,4.1741,4.174,4.174,4.174,0,4.1365,4.1426,4.1418,4.146,4.1526,4.1514,4.1579,4.1587,4.1605,4.1644,4.1621,4.1659,4.1648,4.1685,4.168,4.1739,4.175,4.1748,4.1745,4.1748,4.1748,4.1759,4.175,4.1744,4.1743,4.1742,4.1742,0,4.1488,4.1487,4.1557,4.1573,4.1578,4.1626,4.1638,4.1676,4.1677,4.1727,4.1738,4.174,4.1781,4.1777,4.1824,4.182,4.1892,4.1884,4.1884,4.188,4.1927,4.1921,4.2089,4.2108,4.1969,4.197,4.1972,0,4.157,4.1615,4.1635,4.1659,4.1672,4.1713,4.1736,4.1726,4.1751,4.1778,4.1811,4.185,4.188,4.1948,4.1952,4.1986,4.1975,4.2032,4.198,4.198,4.197,4.1966,4.1968,4.2041,4.2043,4.2044,4.2045,0,4.1712,4.1707,4.1742,4.1775,4.1803,4.1829,4.1853,4.1874,4.1865,4.1894,4.1935,4.1958,4.2004,4.2042,4.2074,4.2084,4.2061,4.2061,4.2073,4.2075,4.2071,4.2068,4.1907,4.2057,4.2056,4.2055,4.2054,4.2054,4.1813,4.185,4.1867,4.1906,4.1921,4.1943,4.1976,4.198,4.2014,4.205,4.2042,4.2087,4.2104,4.2145,4.2158,4.2191,4.2171,4.219,4.2193,4.2197,4.22,4.2068,4.2198,4.2197,4.2197,4.2197,4.2197,0,4.1949,4.1958,4.1993,4.2025,4.2054,4.203,4.2054,4.2079,4.2119,4.2137,4.2166,4.2211,4.2246,4.2252,4.2284,4.231,4.23,4.2318,4.2314,4.2316,4.222,4.2203,4.2325,4.2325,4.2325,4.2325,4.2325,4.2325,4.2023,4.2082,4.2079,4.2144,4.2152,4.2195,4.2209,4.2227,4.2241,4.2292,4.232,4.2324,4.2336,4.2368,4.2398,4.2399,4.241,4.2431,4.2427,4.2336,4.2323,4.2311,4.2296,4.2435,4.2435,4.252,4.2521,4.2522]}]]